www.pogodaiklimat.ru

ПОГОДА в Санта-Ане, CA

  • Прогноз погоды в Санта-Ане
  • Монитор погоды в Санта-Ане
  • Климат в Санта-Ане

АРХИВ ПОГОДЫ в Санта-Ане

Время (UTC), дата Ветер
(напр.,м/с)
 
Видим.   Явления Облачность Т
(С)
Тd
(С)
f
(%)
Тe
(С)
Тes
(С)
Комфортность

P
(гПа)

Po
(гПа)
Тmin
(С)
Tmax
(С)
R
(мм)
SD
(см)
09:53 21.05 В  16 км    ясно  +13.3  +8.9  75  +12  +12    1014.1  1012.2         
10:53 21.05 В  16 км    ясно  +13.3  +8.3  72  +12  +12    1013.7  1011.8  +13.3  +15.0     
11:53 21.05 В  16 км    8/8 1350 м  +13.3  +8.3  72  +12  +12    1013.7  1011.8         
12:53 21.05 В  16 км    8/8 1380 м
[средняя] 
+13.9  +8.9  72  +13  +13    1013.8  1011.8         
13:53 21.05 ЮВ  16 км    8/8 1320 м
[средняя] 
+15.6  +9.4  67  +15  +15    1013.3  1011.2         
14:24 21.05 Ю  16 км    10/10 630 м  +16.1  +10.0  67  +15  +15      1011.5         
14:43 21.05 Ю  16 км    10/10 690 м  +16.1  +10.0  67  +15  +15      1011.5         
14:53 21.05 ЮЗ  16 км    8/8 690 м  +16.1  +10.0  67  +15  +15    1013.3  1011.5         
15:53 21.05 ЮЗ  16 км    8/8 600 м  +16.1  +10.0  67  +15  +16    1013.3  1011.5         
16:00 21.05 ЮЗ  16 км    10/10 660 м  +16.1  +10.0  67  +15  +15      1011.5         
16:27 21.05 ЮЗ  4
{8} 
16 км    8/8 630 м  +16.7  +10.0  65  +16  +17      1011.2         
16:53 21.05 ЮЗ  16 км    8/8 630 м  +16.7  +9.4  62  +16  +17    1013.1  1011.2  +12.8  +17.2     
17:53 21.05 ЮЗ  16 км    5/5 720 м
[средняя] 
+17.8  +8.9  56  +17  +20    1012.9  1010.8         
18:53 21.05 З  5
{9} 
16 км    5/5 720 м
[средняя] 
+18.3  +8.9  54  +18  +22    1012.3  1010.2         
19:53 21.05 З  6
{10} 
16 км    5/5 720 м
[средняя] 
+17.8  +10.0  60  +17  +20    1011.9  1009.8         
20:53 21.05 ЮЗ  7
{11} 
16 км    5/2 810 м
[верхняя] 
+17.8  +8.9  56  +17  +20    1011.3  1009.1         
21:53 21.05 ЮЗ  7
{11} 
16 км    5/2 810 м
[верхняя] 
+17.8  +8.9  56  +17  +19    1010.8  1008.8         
22:53 21.05 З  4
{9} 
16 км    5/5 810 м
[верхняя] 
+17.2  +8.9  58  +17  +20    1010.0  1008.1  +16.1  +18.9     
23:53 21.05 нст  16 км    5/2 750 м
[верхняя] 
+17.2  +9.4  60  +17  +21    1009.6  1007.8         
00:53 22.05 ЮЗ  16 км    5/0 2250 м
[средняя] 
+16.1  +9.4  64  +15  +17    1008.8  1006.8         
01:00 22.05 ЮЗ  16 км    8/2 750 м
[средняя верхняя] 
+16.1  +9.4  64  +15  +15      1006.8         
01:53 22.05 ЮЗ  4
{8} 
16 км    8/2 750 м
[средняя верхняя] 
+15.6  +9.4  67  +14  +15    1008.8  1006.8         
02:53 22.05 ЮЗ  4
{8} 
16 км    5/2 630 м
[средняя верхняя] 
+15.6  +8.9  64  +14  +14    1008.5  1006.4         
03:53 22.05 ЮЗ  13 км    8/2 750 м
[средняя] 
+15.0  +8.9  67  +15  +15    1008.7  1006.8         
04:53 22.05 ЮЗ  11 км    5/2 750 м
[средняя] 
+15.0  +8.9  67  +15  +15    1008.2  1006.1  +15.0  +18.3     
05:53 22.05 В  16 км    2/0 2700 м
[средняя] 
+14.4  +8.9  70  +14  +14    1008.0  1006.1         
06:53 22.05 ЮВ  16 км    ясно  +13.3  +8.9  75  +12  +12    1007.4  1005.4         
07:53 22.05 ЮВ  16 км    ясно  +13.3  +8.9  75  +12  +12    1006.8  1004.7         
08:53 22.05 Ю  16 км    ясно  +12.8  +8.9  77  +12  +12    1006.4  1004.4         
09:53 22.05 Ю  16 км    ясно  +12.8  +8.9  77  +12  +12    1006.2  1004.4         
10:53 22.05 Ю  16 км    ясно  +12.8  +8.9  77  +12  +12    1006.1  1004.1  +12.2  +15.0     
11:53 22.05   11 км    8/8 1800 м  +13.9  +10.0  77  +14  +14    1006.3  1004.4         
12:53 22.05 З  16 км    8/0 2100 м
[средняя] 
+13.9  +8.3  69  +13  +13    1006.7  1004.7         
13:53 22.05 Ю  14 км    5/0 2100 м
[средняя] 
+15.0  +8.3  64  +15  +15    1006.7  1004.7         
14:53 22.05 нст  16 км    5/2 1050 м
[средняя] 
+16.1  +8.3  60  +16  +18    1006.9  1004.7         
15:53 22.05 ЮЗ  16 км    2/2 810 м
[средняя] 
+17.2  +8.3  56  +18  +25    1006.6  1004.7         
16:53 22.05 нст  16 км    5/5 930 м  +17.8  +7.8  52  +18  +23    1006.8  1004.7  +12.8  +18.3     
17:53 22.05 ЮЗ  6
{8} 
16 км    5/5 900 м  +18.3  +7.2  48  +18  +21    1006.8  1004.7         
18:53 22.05 ЮЗ  4
{9} 
16 км    5/5 900 м  +17.8  +7.2  50  +17  +23    1006.7  1004.7         
19:53 22.05 ЮЗ  4
{8} 
16 км    2/2 900 м  +18.3  +6.1  45  +18  +28    1006.8  1004.7         
20:53 22.05 нст  3
{7} 
16 км    5/5 900 м
[средняя] 
+18.3  +6.1  45  +19  +27    1007.1  1005.1         
21:53 22.05 ЮЗ  16 км  гроза  8/5 900 м
[средняя] 
+17.8  +7.2  50  +18  +21    1007.4  1005.4         
22:00 22.05 ЮЗ  16 км  гроза  8/8 900 м
[средняя] 
+17.2  +7.8  54  +17  +19      1005.4         
22:18 22.05 С  6
{10} 
4 км  сильный дождь  8/8 1230 м  +15.0  +9.4  69  +13  +14      1006.1         
22:43 22.05 СВ  11 км  слабый дождь  8/8 1650 м  +14.4  +7.2  62  +14  +15      1006.1         
22:53 22.05 нст  13 км  слабый дождь  8/8 1650 м  +14.4  +8.3  67  +14  +15    1007.7  1005.8  +13.9  +20.0  4.1   
23:53 22.05 В  16 км    8/0 2400 м
[средняя] 
+15.0  +10.0  72  +14  +17    1007.5  1005.4         
00:53 23.05   16 км    8/0 3600 м
[средняя верхняя] 
+15.0  +8.9  67  +15  +17    1007.8  1005.8         

 

Местоположение метеостанции John Wayne Airport: широта 33.6800 долгота -117.8664 высота над уровнем моря 16 м.

В архиве по умолчанию представлена погода в Санта-Ане за последние 1-2 суток. Обновление информации о фактической погоде в базе происходит ежечасно! Архивные данные за месяц целиком и за предыдущие месяцы Вы можете получить, выбрав интересующий диапазон дат из раскрывающегося списка и нажав кнопку "Ввод!".

Внимание! Архив погоды МЕТАР в базе сайта хранится не более 60 дней. Нет смысла пытаться выбрать более раннюю дату.

Внимание! Время в таблицах - всемирное. Для получения местного времени необходимо прибавить поправку, которая в Санта-Ане равна -8 ч.

Ветер - указаны скорость ветра в м/с и направление, откуда дует ветер: С - северный, СВ - северо-восточный, В - восточный, ЮВ - юго-восточный, Ю - южный, ЮЗ - юго-западный, З - западный, СЗ - северо-западный.
Видимость - горизонтальная дальность видимости в метрах или километрах. При видимости от 1 до 10 км при отсутствии осадков обычно наблюдается дымка, при ухудшении видимости до 1 км и менее - туман. В сухую погоду видимость может ухудшаться дымом, пылью или мглою.
Атмосферные явления - указаны явления, наблюдавшиеся в указанный момент времени.
Облачность - указаны через наклонную черту верхняя и нижняя облачность в баллах и высота нижней границы облаков в метрах. Внимание: облачность, как и прочие метеорологические величины в США измеряются автоматическими метеостанциями. Указанные значения в баллах носят условный характер и показывают процент времени, в течение которого, в среднем, лазерный луч высотомера отражался от облаков обратно.
T - Температура воздуха - температура, измеренная на высоте 2 м над землей.
Td - Температура точки росы - температура, при понижении до которой содержащийся в воздухе водяной пар достигнет насыщения.
f - Относительная влажность воздуха - влажноcть воздуха, измеренная на высоте 2 м над землей.
Te - Эффективная температура - температура, которую ощущает одетый по сезону человек в тени. Характеристика душности погоды. При расчете учитывается влияние влажности воздуха и скорости ветра на теплоощущения человека.
Tes - Эффективная температура на солнце - температура, которую ощущает человек, с поправкой на солнечный нагрев. Характеристика знойности погоды. Зависит от высоты солнца над горизонтом, облачности и скорости ветра. Ночью, в пасмурную погоду, а также при ветре 12 м/с и более поправка равна нулю.
P - Атмосферное давление - приведенное к уровню моря атмосферное давление.
Po - Атмосферное давление - измеренное на уровне метеостанции атмосферное давление.
Tmin - Минимальная температура - минимум температуры воздуха на высоте 2 м над землей.
Tmax - Максимальная температура - максимум температуры воздуха на высоте 2 м над землей.
R - Количество осадков - Количество выпавших осадков за 3 или 6 часов, мм.
SD - Снежный покров - Высота снежного покрова, см.